[[{"header":{"parameterUnit":"m.s-1","parameterCategory":1,"la1":30.2991,"la2":30.254,"lo1":-89.0895,"lo2":-89.0444,"dy":0.0017,"dx":0.0017,"nx":28,"ny":28,"refTime":"2025-03-04T09:00:00:Z","depth":0,"parameterNumber":2,"parameterNumberName":"U-component_of_WINDS"},"data":[0,0,0,0,0,0,0,0,0,0,0,0,0,0,0,0,0,0,0,0,0,0,0,0,0,0,0,0,0,0,0,0,0,0,0,0,0,0,0,0,0,0,0,0,0,0,0,0,0,0,0,0,0,0,0,0,0,0,-4.6299,-4.6302,0,-4.6575,-4.6578,-4.6581,-4.6699,-4.6698,-4.6698,-4.6697,-4.6981,-4.6989,-4.6997,0,0,0,0,0,0,0,0,0,0,0,0,0,-4.5873,-4.588,-4.6298,-4.6302,-4.6305,-4.6575,-4.6579,-4.6582,-4.6699,-4.6698,-4.6698,-4.6697,-4.6978,-4.6988,-4.6997,0,0,0,0,0,0,0,0,0,0,0,0,0,-4.6094,-4.5882,-4.6298,-4.6396,-4.6408,-4.6574,-4.6579,-4.6583,-4.6699,-4.6698,-4.6698,-4.6697,-4.6975,-4.6987,-4.6999,-4.7088,0,0,-4.7036,-4.7041,0,0,0,0,0,0,0,0,-4.6082,-4.611,-4.6378,-4.639,-4.6403,-4.6602,-4.6533,-4.6753,-4.6699,-4.6588,-4.6697,-4.6697,-4.6855,-4.6877,-4.6931,-4.7101,-4.7113,-4.7037,-4.7044,-4.7049,-4.7052,0,0,0,0,0,0,0,-4.6066,-4.6099,-4.6408,-4.6382,-4.6397,-4.6427,-4.6457,-4.6575,-4.6723,-4.6598,-4.6607,-4.6638,-4.6862,-4.6919,-4.6938,-4.7118,-4.7036,-4.7047,-4.7054,-4.7059,-4.7377,-4.7378,0,0,0,0,0,0,-4.6034,-4.6085,-4.6399,-4.6416,-4.6237,-4.6435,-4.6469,-4.6539,-4.6722,-4.6749,-4.6639,-4.6643,-4.6899,-4.6924,-4.6949,-4.7066,-4.7049,-4.706,-4.7067,-4.7376,-4.7377,-4.7378,0,0,0,0,0,0,-4.6025,-4.6061,-4.6388,-4.6253,-4.6297,-4.6443,-4.652,-4.6545,-4.6602,-4.6753,-4.678,-4.667,-4.6899,-4.6932,-4.7053,-4.7078,-4.7066,-4.7077,-4.7374,-4.7376,-4.7378,-4.7301,0,0,0,0,0,0,-4.6012,-4.6057,-4.6092,-4.6253,-4.6304,-4.6487,-4.6522,-4.6551,-4.6622,-4.663,-4.6789,-4.6814,-4.6901,-4.7034,-4.7065,-4.7094,-4.7086,-4.7373,-4.7375,-4.7377,-4.7302,-4.73,-4.7298,0,0,0,0,0,-4.5997,-4.6059,-4.6093,-4.6131,-4.6351,-4.6488,-4.6517,-4.6616,-4.6623,-4.666,-4.6757,-4.6809,-4.707,-4.7046,-4.7081,-4.7114,-4.7371,-4.7374,-4.7377,-4.7302,-4.73,-4.7298,0,0,0,0,0,0,-4.5898,-4.6082,-4.6122,-4.6239,-4.6347,-4.6507,-4.6557,-4.661,-4.6718,-4.6721,-4.6839,-4.6874,-4.6985,-4.7062,-4.7031,-4.7211,-4.7225,-4.7235,-4.7156,-4.7155,-4.7153,-4.7132,-4.7096,0,0,0,0,0,-4.5889,-4.5985,-4.6142,-4.6229,-4.6282,-4.6409,-4.6473,-4.654,-4.6656,-4.6703,-4.6809,-4.692,-4.7028,-4.7096,-4.7203,-4.7313,-4.735,-4.7354,-4.7352,-4.735,-4.7357,-4.7422,-4.7426,-4.7387,-4.7387,-4.7387,0,0,-4.5873,-4.5986,-4.6039,-4.6212,-4.6304,-4.6401,-4.6447,-4.6548,-4.6621,-4.6718,-4.6839,-4.692,-4.7053,-4.7169,-4.7226,-4.7237,-4.7376,-4.7353,-4.735,-4.7359,-4.7425,-4.7429,-4.7432,-4.7389,-4.7389,-4.7389,0,0,-4.5894,-4.5988,-4.6072,-4.6163,-4.6301,-4.6386,-4.6406,-4.656,-4.6617,-4.674,-4.6816,-4.6905,-4.7087,-4.7178,-4.7249,-4.7304,-4.7356,-4.7336,-4.7326,-4.7388,-4.7391,-4.7394,-4.7415,-4.7421,-4.7343,-4.7342,-4.7342,0,-4.5856,-4.6005,-4.6109,-4.6206,-4.628,-4.6372,-4.6459,-4.6542,-4.6707,-4.6757,-4.6767,-4.6998,-4.7094,-4.7233,-4.7247,-4.73,-4.7327,-4.7318,-4.7382,-4.7387,-4.7391,-4.7412,-4.7419,-4.7339,-4.7339,-4.734,-4.734,0,-4.5953,-4.6055,-4.6106,-4.6264,-4.6344,-4.6435,-4.6553,-4.6622,-4.6681,-4.6765,-4.689,-4.7008,-4.714,-4.7179,-4.7238,-4.7327,-4.733,-4.7359,-4.7376,-4.739,-4.7411,-4.742,-4.7334,-4.7335,-4.7336,-4.7337,0,0,-4.5918,-4.6132,-4.615,-4.6223,-4.6382,-4.6463,-4.6558,-4.6688,-4.6745,-4.6857,-4.694,-4.7092,-4.7121,-4.7201,-4.7272,-4.7326,-4.7363,-4.735,-4.7355,-4.7348,-4.7469,-4.7446,-4.7453,-4.7399,-4.7401,-4.7402,-4.7458,0,-4.596,-4.6135,-4.6231,-4.6366,-4.6462,-4.6551,-4.6635,-4.6741,-4.6822,-4.6916,-4.7006,-4.7112,-4.7142,-4.7191,-4.7249,-4.7346,-4.7389,-4.7344,-4.7478,-4.7481,-4.7442,-4.7465,-4.744,-4.7487,-4.7467,-4.7469,-4.747,0,-4.6033,-4.6143,-4.6286,-4.6435,-4.6479,-4.6552,-4.668,-4.6768,-4.6891,-4.6947,-4.7035,-4.7106,-4.7211,-4.7219,-4.7365,-4.7332,-4.7393,-4.7449,-4.7454,-4.747,-4.7476,-4.7482,-4.7505,-4.7511,-4.7484,-4.7483,-4.7482,0,-4.5994,-4.6177,-4.6288,-4.6347,-4.6524,-4.6573,-4.6649,-4.6772,-4.6844,-4.6955,-4.7003,-4.7125,-4.7192,-4.7285,-4.7387,-4.7383,-4.7523,-4.754,-4.7573,-4.757,-4.7598,-4.7595,-4.7631,-4.7636,-4.7636,-4.7636,-4.7636,0,-4.6031,-4.6115,-4.6272,-4.634,-4.6438,-4.6548,-4.6642,-4.6725,-4.6833,-4.6919,-4.7004,-4.7083,-4.7212,-4.7307,-4.7387,-4.7497,-4.7526,-4.7574,-4.7595,-4.7567,-4.7561,-4.7608,-4.7608,-4.7638,-4.7638,-4.7637,-4.7637,0,-4.6004,-4.6112,-4.6238,-4.6395,-4.6436,-4.6501,-4.6636,-4.6705,-4.6791,-4.6898,-4.693,-4.7064,-4.7181,-4.7291,-4.7447,-4.7501,-4.7611,-4.7637,-4.7568,-4.758,-4.7606,-4.7602,-4.7674,-4.769,-4.7683,-4.7683,-4.7683,0,-4.602,-4.6087,-4.6251,-4.6315,-4.6389,-4.649,-4.6564,-4.6675,-4.6749,-4.6895,-4.6947,-4.7069,-4.7173,-4.7355,-4.7467,-4.7587,-4.7617,-4.7634,-4.7636,-4.7606,-4.7618,-4.7613,-4.762,-4.7632,-4.7631,-4.7631,-4.7631,0,-4.6039,-4.6089,-4.6192,-4.6314,-4.64,-4.6502,-4.6607,-4.6654,-4.6785,-4.6864,-4.6984,-4.7064,-4.7223,-4.7344,-4.7477,-4.7556,-4.7616,-4.7629,-4.7643,-4.7616,-4.7573,-4.7597,-4.7562,-4.7627,-4.7627,-4.7628,-4.7628,-4.7628,-4.6035,-4.6099,-4.6224,-4.6336,-4.6427,-4.6522,-4.6595,-4.669,-4.6792,-4.693,-4.6989,-4.711,-4.7234,-4.7418,-4.7496,-4.7593,-4.7607,-4.7627,-4.7632,-4.7635,-4.763,-4.7557,-4.7618,-4.7618,-4.7618,-4.7618,-4.7619,0,-4.6058,-4.6143,-4.6245,-4.6389,-4.6477,-4.6525,-4.6643,-4.6714,-4.6819,-4.6929,-4.7029,-4.7167,-4.7285,-4.7406,-4.7531,-4.7585,-4.7616,-4.7615,-4.7612,-4.7629,-4.761,-4.7586,-4.7588,-4.7588,-4.7588,-4.7588,-4.7588,-4.7588,-4.608,-4.6191,-4.6256,-4.6413,-4.6498,-4.6617,-4.6681,-4.677,-4.6858,-4.7008,-4.7106,-4.7184,-4.7299,-4.7432,-4.7543,-4.7576,-4.7618,-4.7609,-4.7649,-4.7629,-4.763,-4.7632,-4.761,-4.7617,-4.7617,-4.766,-4.7661,-4.7661]},{"header":{"parameterUnit":"m.s-1","parameterCategory":1,"la1":30.2991,"la2":30.254,"lo1":-89.0895,"lo2":-89.0444,"dy":0.0017,"dx":0.0017,"nx":28,"ny":28,"refTime":"2025-03-04T09:00:00:Z","depth":0,"parameterNumber":3,"parameterNumberName":"V-component_of_WINDS"},"data":[0,0,0,0,0,0,0,0,0,0,0,0,0,0,0,0,0,0,0,0,0,0,0,0,0,0,0,0,0,0,0,0,0,0,0,0,0,0,0,0,0,0,0,0,0,0,0,0,0,0,0,0,0,0,0,0,0,0,13.2441,13.2443,0,13.2577,13.2579,13.258,13.253,13.2527,13.2524,13.2521,13.265,13.2656,13.2662,0,0,0,0,0,0,0,0,0,0,0,0,0,13.2131,13.2137,13.2441,13.2443,13.2445,13.2577,13.2579,13.258,13.2531,13.2527,13.2524,13.252,13.2648,13.2655,13.2663,0,0,0,0,0,0,0,0,0,0,0,0,0,13.2266,13.2139,13.2441,13.2436,13.2437,13.2576,13.2579,13.2581,13.2532,13.2527,13.2523,13.2518,13.2646,13.2655,13.2664,13.2813,0,0,13.2692,13.2697,0,0,0,0,0,0,0,0,13.2258,13.2277,13.2435,13.2437,13.2438,13.2532,13.2516,13.2658,13.2533,13.2495,13.2521,13.2516,13.2614,13.2626,13.2661,13.2819,13.2824,13.2693,13.2699,13.2703,13.2706,0,0,0,0,0,0,0,13.2249,13.2271,13.2494,13.2437,13.2439,13.2424,13.2439,13.2543,13.2578,13.2498,13.2495,13.2512,13.2614,13.2652,13.2663,13.2826,13.2693,13.2701,13.2707,13.2711,13.3116,13.3121,0,0,0,0,0,0,13.224,13.2263,13.249,13.2499,13.2335,13.2434,13.245,13.2506,13.2577,13.2584,13.2516,13.251,13.2638,13.2652,13.2668,13.2848,13.2703,13.2712,13.2717,13.3111,13.3117,13.3122,0,0,0,0,0,0,13.2234,13.2261,13.2485,13.238,13.2408,13.2444,13.2508,13.2511,13.255,13.2591,13.2596,13.2549,13.2635,13.2654,13.2778,13.2852,13.2716,13.2724,13.3105,13.3112,13.312,13.321,0,0,0,0,0,0,13.2225,13.2259,13.2317,13.2382,13.2414,13.2596,13.2513,13.2517,13.2567,13.256,13.2623,13.2629,13.2633,13.2765,13.2788,13.2862,13.2732,13.3098,13.3108,13.3117,13.3201,13.322,13.3236,0,0,0,0,0,13.2214,13.2334,13.2321,13.2348,13.2488,13.26,13.2618,13.2623,13.2573,13.2632,13.2658,13.2627,13.2841,13.2778,13.2803,13.2882,13.3093,13.3105,13.3116,13.3193,13.3216,13.3236,0,0,0,0,0,0,13.2272,13.2343,13.2328,13.2474,13.2532,13.2592,13.2665,13.2647,13.2718,13.2708,13.2708,13.2722,13.2851,13.2878,13.2807,13.3031,13.2959,13.2976,13.3008,13.3031,13.3049,13.3039,13.274,0,0,0,0,0,13.2303,13.2392,13.2447,13.257,13.26,13.2628,13.2677,13.2677,13.2735,13.2758,13.2794,13.285,13.2929,13.2982,13.3057,13.3205,13.3218,13.3271,13.3289,13.3304,13.3318,13.34,13.3425,13.316,13.316,13.316,0,0,13.2365,13.2415,13.247,13.2583,13.2628,13.2717,13.2649,13.2745,13.2811,13.2772,13.2893,13.2921,13.2983,13.312,13.3182,13.3147,13.3395,13.3319,13.333,13.3337,13.3415,13.344,13.3462,13.3168,13.3167,13.3165,0,0,13.2526,13.2572,13.2681,13.2729,13.28,13.2819,13.2845,13.2909,13.2928,13.305,13.3024,13.31,13.3237,13.3283,13.3325,13.3507,13.3481,13.3531,13.3624,13.3704,13.3725,13.3743,13.3809,13.3833,13.3546,13.3546,13.3546,0,13.2593,13.273,13.2738,13.2839,13.289,13.2864,13.2973,13.3018,13.3108,13.3143,13.3103,13.3278,13.3317,13.3466,13.3511,13.3545,13.3574,13.3523,13.3722,13.374,13.3758,13.3821,13.3845,13.3552,13.3551,13.355,13.355,0,13.281,13.2906,13.2985,13.3079,13.3138,13.3242,13.3264,13.3323,13.3318,13.3341,13.3466,13.3513,13.3599,13.3634,13.3628,13.3783,13.376,13.3721,13.3649,13.3789,13.3848,13.3872,13.356,13.3558,13.3556,13.3555,0,0,13.3008,13.3109,13.3138,13.3182,13.326,13.3332,13.3435,13.3524,13.3575,13.3638,13.3724,13.3843,13.381,13.3857,13.3856,13.3926,13.4069,13.3879,13.3881,13.3914,13.4244,13.4273,13.43,13.4053,13.4058,13.4061,13.4239,0,13.3175,13.3361,13.3373,13.354,13.3629,13.3607,13.3697,13.3753,13.3778,13.3854,13.3878,13.3964,13.3912,13.3941,13.401,13.4038,13.4136,13.4025,13.4131,13.4135,13.4117,13.4331,13.4361,13.4526,13.4262,13.4266,13.4269,0,13.3394,13.3471,13.3649,13.3718,13.3755,13.3836,13.392,13.3994,13.4057,13.407,13.4126,13.4116,13.422,13.4146,13.4289,13.4213,13.4258,13.4278,13.4285,13.4294,13.421,13.4347,13.4579,13.4604,13.4305,13.4302,13.4299,0,13.3523,13.3669,13.3795,13.3833,13.3916,13.3974,13.4011,13.4071,13.4124,13.4196,13.4231,13.4312,13.4357,13.4419,13.4431,13.4376,13.4575,13.4501,13.4587,13.4587,13.4629,13.4627,13.4872,13.4658,13.4658,13.4657,13.4657,0,13.3708,13.3817,13.3855,13.3932,13.4054,13.4066,13.4186,13.4218,13.4272,13.4354,13.4338,13.4415,13.4427,13.4505,13.4515,13.4633,13.4652,13.4664,13.4666,13.4666,13.4665,13.4695,13.4684,13.4664,13.4663,13.4661,13.466,0,13.3871,13.3901,13.4037,13.4107,13.4127,13.4214,13.4272,13.4345,13.4369,13.4473,13.4498,13.4534,13.4626,13.4646,13.4753,13.476,13.4901,13.489,13.4881,13.4879,13.4965,13.4957,13.5239,13.5276,13.5037,13.504,13.5041,0,13.3988,13.4072,13.4153,13.421,13.4251,13.434,13.4396,13.4411,13.447,13.4551,13.4615,13.4706,13.478,13.4929,13.4963,13.5045,13.5037,13.513,13.5049,13.5048,13.5039,13.5034,13.5043,13.5145,13.5148,13.515,13.5151,0,13.4192,13.4203,13.4287,13.4377,13.4446,13.4516,13.4583,13.4629,13.4653,13.4719,13.4816,13.4874,13.4987,13.5078,13.5162,13.5196,13.5178,13.5177,13.5202,13.5203,13.5194,13.5201,13.4923,13.517,13.5168,13.5167,13.5166,13.5165,13.4335,13.4411,13.4481,13.4575,13.4629,13.4692,13.4766,13.4802,13.4884,13.498,13.4983,13.5089,13.5152,13.5263,13.5304,13.5385,13.5355,13.539,13.5399,13.5408,13.5417,13.5182,13.54,13.5399,13.5399,13.5398,13.5398,0,13.4539,13.4585,13.4672,13.4769,13.4843,13.4824,13.4898,13.496,13.5055,13.5117,13.5193,13.5305,13.5394,13.5437,13.5524,13.5581,13.5575,13.5603,13.5599,13.5608,13.5437,13.5408,13.5607,13.5607,13.5607,13.5607,13.5607,13.5607,13.4654,13.4782,13.4802,13.4956,13.4999,13.5107,13.5151,13.5209,13.5259,13.5387,13.5463,13.5492,13.5546,13.5638,13.5719,13.5729,13.5762,13.5795,13.5801,13.5641,13.5619,13.5599,13.5572,13.5802,13.5802,13.5965,13.5966,13.5967]}]]